Location: Piotrkow Trybunalski
(51.4000°N, 19.6830°E)
Time: 00:55:12
(UTC+02:00)

STRAND 1 - Pass Details

Date: 01 April 2023
Orbit: 767 x 779 km, 98.4° (Epoch: 06 June)

Event Time Altitude Azimuth Distance (km) Brightness Sun altitude
Rises 20:31:51 0° 10° (N) 3,254 ? -12.5°
Reaches altitude 10° 20:34:17 10° 3° (N) 2,322 ? -12.8°
Maximum altitude 20:39:02 40° 295° (WNW) 1,117 ? -13.5°
Drops below altitude 10° 20:43:45 10° 227° (SW) 2,306 ? -14.1°
Sets 20:46:09 0° 220° (SW) 3,228 ? -14.5°
